Greenwood, MS

10:48 PM CDT on May 24, 2017 (GMT -0500)
Greenwood-Leflore

Weather History for KGWO - August, 2013

Change the Weather History Date:

Tuesday, August 27, 2013

  Actual Average Record
Temperature  
Mean Temperature 76 °F 80 °F  
Max Temperature 90 °F 92 °F 101 °F (1954)
Min Temperature 62 °F 69 °F 54 °F (2015)
Degree Days  
Heating Degree Days 0 0  
Month to date heating degree days 0 0  
Since 1 June heating degree days 0 0  
Since 1 July heating degree days 0 0  
Cooling Degree Days 11 15  
Month to date cooling degree days 429 429  
Year to date cooling degree days 1563 1677  
Since 1 June cooling degree days 1287 1347  
Growing Degree Days 26 (Base 50)    
Moisture  
Dew Point 63 °F    
Average Humidity 66    
Maximum Humidity 93    
Minimum Humidity 38    
Precipitation  
Precipitation 0.00 in 0.09 in 2.06 in (2003)
Month to date precipitation 2.53 2.42  
Year to date precipitation 38.25 33.66  
Sea Level Pressure  
Sea Level Pressure 30.11 in    
Wind  
Wind Speed 1 mph (NNE)    
Max Wind Speed 7 mph    
Max Gust Speed 10 mph    
Visibility 10 miles    
Events      
T = Trace of Precipitation, MM = Missing Value Source: NWS Daily Summary

Daily Weather History Graph

Daily Weather History Graph

Search for Another Location

Airport or City:

Trip Planner

Search our weather history database for the weather conditions in past years. The results will help you decide how hot, cold, wet, or windy it might be!

Date:

Astronomy

Aug. 27, 2013 Rise Set
Actual Time 6:31 AM CDT 7:31 PM CDT
Civil Twilight 6:05 AM CDT 7:57 PM CDT
Nautical Twilight 5:35 AM CDT 8:27 PM CDT
Astronomical Twilight 5:03 AM CDT 8:58 PM CDT
Moon 11:47 PM CDT (8/27) 1:07 PM CDT (8/27)
Length of Visible Light 13h 51m
Length of Day
13h 00m
Waning Gibbous, 57% of the Moon is Illuminated
Aug 27
Waning Gibbous
Aug 28
Last Quarter
Sep 5
New
Sep 12
First Quarter
Sep 19
Full

Hourly Weather History & Observations

Time (CDT) Temp. Heat Index Dew Point Humidity Pressure Visibility Wind Dir Wind Speed Gust Speed Precip Events Conditions
12:53 AM 64.9 °F - 63.0 °F 93% 30.15 in 10.0 mi Calm Calm - N/A   Clear
1:53 AM 66.0 °F - 63.0 °F 90% 30.14 in 10.0 mi Calm Calm - N/A   Clear
2:53 AM 64.9 °F - 63.0 °F 93% 30.13 in 10.0 mi Calm Calm - N/A   Clear
3:53 AM 64.9 °F - 62.1 °F 90% 30.13 in 10.0 mi Calm Calm - N/A   Clear
4:53 AM 64.0 °F - 61.0 °F 90% 30.12 in 10.0 mi NE 3.5 mph - N/A   Clear
5:53 AM 63.0 °F - 61.0 °F 93% 30.13 in 9.0 mi Calm Calm - N/A   Clear
6:53 AM 63.0 °F - 61.0 °F 93% 30.15 in 6.0 mi Calm Calm - N/A   Clear
7:53 AM 69.1 °F - 64.0 °F 84% 30.16 in 10.0 mi Calm Calm - N/A   Clear
8:53 AM 73.0 °F - 64.0 °F 73% 30.17 in 10.0 mi Calm Calm - N/A   Clear
9:53 AM 79.0 °F - 64.0 °F 60% 30.17 in 10.0 mi Calm Calm - N/A   Clear
10:53 AM 82.0 °F 83.0 °F 62.1 °F 51% 30.16 in 10.0 mi South 4.6 mph - N/A   Clear
11:53 AM 84.0 °F 84.0 °F 60.1 °F 44% 30.16 in 10.0 mi Calm Calm - N/A   Clear
12:53 PM 87.1 °F 87.8 °F 63.0 °F 44% 30.13 in 10.0 mi NNE 5.8 mph - N/A   Clear
1:53 PM 87.1 °F 87.5 °F 62.1 °F 43% 30.10 in 10.0 mi SW 3.5 mph - N/A   Clear
2:53 PM 88.0 °F 87.9 °F 61.0 °F 40% 30.07 in 10.0 mi Calm Calm - N/A   Partly Cloudy
3:53 PM 88.0 °F 87.9 °F 61.0 °F 40% 30.06 in 10.0 mi NNW 3.5 mph - N/A   Clear
4:53 PM 88.0 °F 89.3 °F 64.0 °F 45% 30.06 in 10.0 mi Calm Calm - N/A   Clear
5:53 PM 89.1 °F 88.8 °F 60.1 °F 38% 30.05 in 10.0 mi NE 4.6 mph - N/A   Clear
6:53 PM 80.1 °F 82.1 °F 66.0 °F 62% 30.05 in 10.0 mi NNE 3.5 mph - N/A   Clear
7:53 PM 73.9 °F - 66.0 °F 76% 30.06 in 10.0 mi ENE 3.5 mph - N/A   Clear
8:53 PM 71.1 °F - 66.0 °F 84% 30.06 in 10.0 mi Calm Calm - N/A   Clear
9:53 PM 70.0 °F - 66.0 °F 87% 30.08 in 10.0 mi Calm Calm - N/A   Clear
10:53 PM 71.1 °F - 64.0 °F 78% 30.08 in 10.0 mi Calm Calm - N/A   Clear
11:53 PM 69.1 °F - 64.0 °F 84% 30.08 in 10.0 mi Calm Calm - N/A   Clear